When you browse on this site, cookies collect data to enhance your experience and personalize the content and advertising you see.
Visit our Privacy Policy to learn more. By continuing to use the site, you agree to this use of cookies and data.
  • En España
  • Lista de países
  • Para 7 días
  • Temperatura del agua
  • Mapa Satelital
  • El tiempo en el mapa
  • Informadores
  • user-avatar
    Iniciar sesión

    Tiempo cada hora Praia

    Hoy, 25 Junio, Martes

    Tiempo Temperatura Precipitaciones Viento Presión Humedad
    00:00 +34°C° 0 mm 4 mps 682 mmHg 15%
    01:00 +33°C° 0 mm 3 mps 682 mmHg 18%
    02:00 +31°C° 0 mm 3 mps 682 mmHg 28%
    03:00 +30°C° 0 mm 2 mps 682 mmHg 32%
    04:00 +29°C° 0 mm 1 mps 681 mmHg 37%
    05:00 +28°C° 0 mm 1 mps 681 mmHg 41%
    06:00 +29°C° 0 mm 1 mps 682 mmHg 39%
    07:00 +30°C° 0 mm 1 mps 683 mmHg 38%
    08:00 +31°C° 0 mm 1 mps 683 mmHg 39%
    09:00 +34°C° 0 mm 2 mps 683 mmHg 32%
    10:00 +35°C° 0 mm 3 mps 684 mmHg 24%
    11:00 +37°C° 0 mm 4 mps 684 mmHg 16%
    12:00 +38°C° 0 mm 3 mps 684 mmHg 14%
    13:00 +39°C° 0 mm 3 mps 683 mmHg 12%
    14:00 +40°C° 0 mm 2 mps 682 mmHg 11%
    15:00 +40°C° 0 mm 2 mps 682 mmHg 10%
    16:00 +40°C° 0 mm 2 mps 682 mmHg 9%
    17:00 +40°C° 0 mm 2 mps 681 mmHg 9%
    18:00 +39°C° 0 mm 2 mps 681 mmHg 9%
    19:00 +38°C° 0 mm 3 mps 681 mmHg 10%
    20:00 +37°C° 0 mm 3 mps 682 mmHg 10%
    21:00 +36°C° 0 mm 3 mps 682 mmHg 10%
    22:00 +35°C° 0 mm 3 mps 682 mmHg 11%
    23:00 +34°C° 0 mm 3 mps 682 mmHg 11%

    Mañana, 26 Junio, Miércoles

    Tiempo Temperatura Precipitaciones Viento Presión Humedad
    00:00 +34°C° 0 mm 3 mps 682 mmHg 12%
    01:00 +33°C° 0 mm 3 mps 682 mmHg 13%
    02:00 +31°C° 0 mm 2 mps 682 mmHg 14%
    03:00 +30°C° 0 mm 3 mps 682 mmHg 19%
    04:00 +30°C° 0 mm 3 mps 682 mmHg 24%
    05:00 +29°C° 0 mm 4 mps 682 mmHg 29%
    06:00 +29°C° 0 mm 4 mps 683 mmHg 40%
    07:00 +28°C° 0 mm 5 mps 683 mmHg 50%
    08:00 +28°C° 0 mm 6 mps 683 mmHg 60%
    09:00 +29°C° 0 mm 5 mps 684 mmHg 54%
    10:00 +32°C° 0 mm 5 mps 684 mmHg 48%
    11:00 +34°C° 0 mm 5 mps 684 mmHg 42%
    12:00 +35°C° 0 mm 4 mps 684 mmHg 36%
    13:00 +36°C° 0 mm 3 mps 684 mmHg 30%
    14:00 +36°C° 0 mm 1 mps 683 mmHg 23%
    15:00 +37°C° 0 mm 3 mps 683 mmHg 24%
    16:00 +36°C° 0 mm 4 mps 683 mmHg 25%
    17:00 +36°C° 0 mm 6 mps 682 mmHg 27%
    18:00 +35°C° 0.1 mm 6 mps 683 mmHg 29%
    19:00 +34°C° 0.1 mm 6 mps 683 mmHg 31%
    20:00 +33°C° 0.1 mm 6 mps 683 mmHg 34%
    21:00 +32°C° 0 mm 6 mps 683 mmHg 38%
    22:00 +30°C° 0 mm 5 mps 683 mmHg 43%
    23:00 +29°C° 0 mm 5 mps 683 mmHg 48%

    Pasado mañana, 27 Junio, Jueves

    Tiempo Temperatura Precipitaciones Viento Presión Humedad
    00:00 +29°C° 0 mm 4 mps 683 mmHg 48%
    01:00 +29°C° 0 mm 3 mps 683 mmHg 47%
    02:00 +29°C° 0 mm 3 mps 683 mmHg 46%
    03:00 +28°C° 0 mm 2 mps 683 mmHg 47%
    04:00 +28°C° 0 mm 2 mps 683 mmHg 48%
    05:00 +28°C° 0 mm 2 mps 683 mmHg 48%
    06:00 +28°C° 0 mm 3 mps 683 mmHg 47%
    07:00 +29°C° 0 mm 3 mps 684 mmHg 47%
    08:00 +29°C° 0 mm 3 mps 684 mmHg 46%
    09:00 +31°C° 0 mm 3 mps 684 mmHg 41%
    10:00 +32°C° 0 mm 2 mps 685 mmHg 36%
    11:00 +35°C° 0 mm 2 mps 685 mmHg 31%
    12:00 +36°C° 0 mm 2 mps 684 mmHg 28%
    13:00 +36°C° 0 mm 1 mps 684 mmHg 24%
    14:00 +37°C° 0 mm 1 mps 683 mmHg 21%
    15:00 +39°C° 0 mm 2 mps 683 mmHg 20%
    16:00 +39°C° 0 mm 3 mps 683 mmHg 19%
    17:00 +40°C° 0 mm 5 mps 682 mmHg 18%
    18:00 +37°C° 0 mm 5 mps 683 mmHg 22%
    19:00 +35°C° 0 mm 5 mps 683 mmHg 27%
    20:00 +34°C° 0 mm 5 mps 683 mmHg 32%
    21:00 +33°C° 0 mm 5 mps 683 mmHg 34%
    22:00 +32°C° 0 mm 5 mps 683 mmHg 37%
    23:00 +32°C° 0 mm 5 mps 683 mmHg 39%

    28 Junio, Viernes

    Tiempo Temperatura Precipitaciones Viento Presión Humedad
    00:00 +32°C° 0 mm 5 mps 683 mmHg 41%
    01:00 +30°C° 0 mm 4 mps 683 mmHg 42%
    02:00 +30°C° 0 mm 3 mps 682 mmHg 43%
    03:00 +29°C° 0 mm 4 mps 682 mmHg 45%
    04:00 +29°C° 0 mm 4 mps 682 mmHg 46%
    05:00 +29°C° 0 mm 5 mps 682 mmHg 48%
    06:00 +30°C° 0 mm 5 mps 683 mmHg 46%
    07:00 +30°C° 0 mm 5 mps 683 mmHg 44%
    08:00 +32°C° 0 mm 5 mps 683 mmHg 41%
    09:00 +34°C° 0 mm 6 mps 684 mmHg 35%
    10:00 +36°C° 0 mm 6 mps 684 mmHg 29%
    11:00 +39°C° 0 mm 6 mps 684 mmHg 23%
    12:00 +39°C° 0 mm 6 mps 684 mmHg 22%
    13:00 +40°C° 0 mm 7 mps 684 mmHg 20%
    14:00 +41°C° 0 mm 7 mps 683 mmHg 19%
    15:00 +41°C° 0 mm 7 mps 683 mmHg 19%
    16:00 +40°C° 0 mm 7 mps 682 mmHg 19%
    17:00 +40°C° 0 mm 7 mps 682 mmHg 19%
    18:00 +39°C° 0 mm 6 mps 682 mmHg 21%
    19:00 +36°C° 0 mm 6 mps 682 mmHg 24%
    20:00 +35°C° 0 mm 5 mps 682 mmHg 26%
    21:00 +33°C° 0 mm 6 mps 682 mmHg 34%
    22:00 +30°C° 0 mm 7 mps 682 mmHg 42%
    23:00 +28°C° 0 mm 7 mps 682 mmHg 50%

    29 Junio, Sábado

    Tiempo Temperatura Precipitaciones Viento Presión Humedad
    00:00 +28°C° 0 mm 7 mps 682 mmHg 51%
    01:00 +28°C° 0 mm 6 mps 681 mmHg 52%
    02:00 +27°C° 0 mm 6 mps 681 mmHg 53%
    03:00 +27°C° 0 mm 6 mps 681 mmHg 55%
    04:00 +26°C° 0 mm 6 mps 681 mmHg 58%
    05:00 +26°C° 0 mm 5 mps 682 mmHg 60%
    06:00 +27°C° 0 mm 6 mps 682 mmHg 60%
    07:00 +27°C° 0 mm 6 mps 683 mmHg 59%
    08:00 +27°C° 0 mm 6 mps 683 mmHg 59%
    09:00 +30°C° 0 mm 6 mps 684 mmHg 50%
    10:00 +33°C° 0 mm 6 mps 684 mmHg 41%
    11:00 +35°C° 0 mm 6 mps 685 mmHg 32%
    12:00 +38°C° 0 mm 6 mps 684 mmHg 27%
    13:00 +39°C° 0 mm 6 mps 684 mmHg 22%
    14:00 +41°C° 0 mm 5 mps 684 mmHg 17%
    15:00 +41°C° 0 mm 5 mps 683 mmHg 16%
    16:00 +41°C° 0 mm 5 mps 683 mmHg 15%
    17:00 +41°C° 0 mm 6 mps 682 mmHg 15%
    18:00 +40°C° 0 mm 5 mps 682 mmHg 16%
    19:00 +39°C° 0 mm 5 mps 682 mmHg 18%
    20:00 +37°C° 0 mm 4 mps 682 mmHg 20%
    21:00 +36°C° 0 mm 4 mps 682 mmHg 24%
    22:00 +34°C° 0 mm 5 mps 682 mmHg 28%
    23:00 +33°C° 0 mm 5 mps 682 mmHg 33%

    30 Junio, Domingo

    Tiempo Temperatura Precipitaciones Viento Presión Humedad
    00:00 +33°C° 0 mm 5 mps 682 mmHg 34%
    01:00 +32°C° 0 mm 4 mps 682 mmHg 35%
    02:00 +32°C° 0 mm 4 mps 681 mmHg 36%
    03:00 +30°C° 0 mm 3 mps 681 mmHg 38%
    04:00 +29°C° 0 mm 3 mps 682 mmHg 40%
    05:00 +29°C° 0 mm 2 mps 682 mmHg 42%
    06:00 +30°C° 0 mm 3 mps 682 mmHg 40%
    07:00 +30°C° 0 mm 4 mps 683 mmHg 38%
    08:00 +32°C° 0 mm 4 mps 683 mmHg 37%
    09:00 +34°C° 0 mm 5 mps 684 mmHg 30%
    10:00 +38°C° 0 mm 6 mps 684 mmHg 23%
    11:00 +40°C° 0 mm 6 mps 685 mmHg 16%
    12:00 +41°C° 0 mm 6 mps 684 mmHg 14%
    13:00 +42°C° 0 mm 6 mps 684 mmHg 12%
    14:00 +44°C° 0 mm 6 mps 683 mmHg 9%
    15:00 +44°C° 0 mm 6 mps 683 mmHg 9%
    16:00 +44°C° 0 mm 6 mps 682 mmHg 9%
    17:00 +44°C° 0 mm 6 mps 682 mmHg 9%
    18:00 +42°C° 0 mm 5 mps 682 mmHg 10%
    19:00 +41°C° 0 mm 4 mps 681 mmHg 10%
    20:00 +38°C° 0 mm 3 mps 681 mmHg 11%
    21:00 +37°C° 0 mm 3 mps 682 mmHg 12%
    22:00 +36°C° 0 mm 3 mps 682 mmHg 12%
    23:00 +36°C° 0 mm 3 mps 682 mmHg 13%
    Mostrar más